Temp
22 21 20 20 20 19 19 19 19 18 18 18 18 18 18 18 17 17 18 18 18 18
22 22 21 21 20 20 19 19 19 18 18 18 18 18 18 18 18 17 17 18 18 18
23 23 22 21 21 21 21 20 19 19 18 18 18 18 18 18 18 17 17 18 18 18
24 23 23 22 22 21 21 20 20 19 19 19 18 18 18 18 18 18 18 18 18 18
24 24 23 23 23 22 21 21 20 19 19 18 18 18 18 19 18 18 18 18 19 19
24 24 24 23 23 22 22 21 20 20 19 19 19 18 18 18 18 18 18 18 18 18
24 24 24 23 23 23 22 21 20 20 19 20 19 19 18 18 18 18 18 18 18 18
25 24 24 24 23 23 21 20 20 19 19 20 19 19 19 18 18 18 18 18 18 18
25 24 24 23 23 23 20 19 17 21 21 19 18 19 19 18 18 18 18 18 18 18
23 23 22 22 22 21 21 21 17 16 16 16 18 17 18 18 18 18 18 18 18 18
24 24 23 23 22 21 19 18 17 17 18 19 21 19 18 18 18 18 18 18 18 18
24 24 23 23 23 21 20 20 17 21 21 23 22 21 19 18 19 18 18 18 18 18
23 23 22 23 23 23 22 19 20 21 22 21 21 22 21 19 19 19 18 18 18 17
21 22 22 22 22 22 22 21 20 21 21 20 21 20 20 19 19 18 18 18 17 17
Height
1558 1559 1561 1563 1565 1566 1568 1569 1571 1571 1572 1573 1574 1575 1576 1577 1578 1578 1580 1581 1583 1585
1553 1555 1556 1559 1561 1563 1565 1566 1567 1568 1568 1569 1570 1571 1572 1573 1574 1575 1577 1578 1580 1581
1549 1551 1553 1555 1557 1559 1561 1563 1563 1564 1565 1565 1566 1567 1568 1569 1570 1571 1574 1575 1577 1578
1545 1547 1549 1551 1553 1555 1557 1558 1559 1560 1561 1562 1563 1563 1563 1564 1566 1567 1570 1572 1573 1575
1541 1543 1545 1546 1549 1551 1551 1552 1553 1556 1558 1558 1559 1560 1560 1559 1561 1563 1565 1567 1569 1571
1536 1538 1539 1542 1544 1545 1545 1548 1549 1550 1552 1554 1555 1557 1557 1557 1558 1559 1561 1562 1564 1567
1531 1532 1534 1537 1539 1540 1542 1545 1547 1548 1548 1549 1549 1549 1551 1552 1553 1555 1556 1557 1558 1560
1527 1527 1529 1532 1533 1534 1537 1540 1542 1543 1544 1541 1542 1543 1543 1546 1548 1549 1550 1552 1553 1554
1523 1523 1525 1527 1527 1529 1524 1521 1534 1529 1538 1544 1544 1541 1542 1543 1543 1545 1545 1545 1547 1549
1519 1519 1521 1523 1523 1521 1521 1524 1520 1511 1528 1536 1532 1533 1535 1532 1528 1535 1537 1538 1540 1542
1517 1517 1518 1519 1519 1518 1518 1519 1518 1521 1521 1515 1520 1523 1526 1528 1526 1527 1529 1531 1532 1536
1516 1515 1514 1515 1514 1513 1513 1515 1517 1514 1505 1503 1506 1513 1513 1519 1519 1518 1521 1524 1525 1529
1514 1512 1510 1510 1510 1508 1506 1506 1506 1504 1503 1503 1500 1498 1502 1506 1510 1511 1515 1517 1519 1522
1511 1509 1507 1505 1504 1503 1501 1501 1499 1500 1500 1501 1500 1500 1499 1500 1504 1504 1507 1511 1512 1514
Wind_Speed
22 21 21 20 20 19 19 18 17 17 18 17 17 17 16 19 20 20 18 17 14 13
21 21 22 19 19 19 18 17 16 18 19 19 19 19 18 19 19 20 18 16 14 14
21 21 21 20 20 20 18 17 17 18 19 20 21 21 20 21 21 19 19 17 16 14
19 21 21 22 21 20 19 20 20 18 18 18 19 21 22 22 21 21 20 19 16 16
22 22 23 22 23 22 22 22 21 21 20 19 18 19 22 22 22 20 20 20 18 17
27 27 27 25 23 24 24 22 22 22 21 20 20 20 21 23 24 23 22 22 21 18
20 23 25 26 26 25 24 25 21 19 17 19 23 24 24 23 26 24 24 24 23 20
14 17 20 22 23 26 27 25 23 12 17 20 21 28 27 26 26 27 26 25 24 21
13 15 16 18 20 23 27 11 21 23 16 27 34 31 24 21 24 25 26 26 26 21
7 10 13 15 15 20 24 22 22 10 28 59 40 40 24 25 21 27 27 26 26 24
7 9 9 10 11 14 16 10 21 17 12 24 25 22 22 22 20 26 26 26 24 26
11 11 10 7 8 10 10 11 10 3 10 3 15 15 16 27 25 26 27 25 24 26
12 12 12 11 9 11 11 9 8 6 9 12 13 12 15 21 25 25 27 25 24 24
16 16 16 16 15 13 15 15 12 12 14 14 12 12 13 15 21 23 26 26 26 26
Wind_Direction
240 240 242 241 237 238 241 242 243 242 242 243 247 252 249 243 246 246 246 248 250 249
235 236 239 239 238 237 239 238 236 236 237 239 242 245 249 247 246 245 246 247 247 245
238 239 240 243 241 239 238 236 234 236 240 241 244 246 246 246 245 248 244 242 241 244
240 241 241 245 246 245 245 241 239 240 246 248 247 245 243 245 245 246 244 240 240 244
246 247 246 249 250 247 248 248 247 245 247 252 252 249 246 241 240 239 239 242 240 241
254 253 251 251 256 250 247 250 249 247 249 255 258 258 256 247 240 241 244 243 242 241
261 262 262 261 261 257 258 249 250 251 259 268 260 255 252 250 243 244 245 242 241 242
289 278 275 270 264 262 260 251 239 239 266 271 280 256 248 246 246 245 242 243 244 240
304 305 299 293 285 278 268 264 286 213 314 270 274 276 255 254 254 251 245 236 241 240
315 312 318 314 308 297 287 281 216 51 337 323 297 267 257 249 275 242 242 237 238 237
351 340 334 331 325 315 302 239 228 232 278 295 255 257 259 246 267 244 238 239 237 239
343 333 334 340 316 308 298 272 224 260 180 198 240 246 259 243 261 241 241 239 238 235
327 323 325 319 295 289 289 271 208 210 227 249 238 234 243 243 241 236 239 237 236 228
324 309 307 310 306 285 280 276 252 240 244 249 255 249 244 232 234 230 231 237 232 222